Location: Prairie State College
(41.5244°N, 87.6382°W)
Time: 07:06:03
(UTC-06:00)

Cosmos 1140 Rocket - Visible Passes

Search period start: 31 January 2015 00:00
Search period end: 10 February 2015 00:00
Orbit: 746 x 768 km, 74.1° (Epoch: 30 January)

Date Brightness Start Highest point End Pass type
(mag) Time Alt. Az. Time Alt. Az. Time Alt. Az.
31 Jan 6.1 18:48:13 10° W 18:51:38 17° NW 18:54:51 10° NNW visible
01 Feb 5.4 18:06:25 10° WSW 18:10:55 28° WNW 18:15:21 10° N visible
03 Feb 6.2 18:30:18 10° W 18:32:43 13° NW 18:34:54 10° NNW visible
04 Feb 5.8 17:47:53 10° WSW 17:51:55 22° WNW 17:55:50 10° N visible
